星链-35302(STARLINK-35302)

导读 | 豆包AI

STARLINK-35302是美国SpaceX星链星座中的卫星,于2025年9月29日发射升空。星链项目旨在构建全球卫星互联网通信系统,为地面偏远地区等提供高速宽带服务,该卫星延续了星链批量部署、低轨运行的技术路线,进一步完善了星座组网覆盖能力,助力美国推进低轨卫星通信网络建设,提升全球宽带接入服务覆盖范围。

基本信息
目录编号:
65845
目录名称:
STARLINK-35302
国际标识:
2025-221Y
轨道中心:
EARTH
卫星名称:
星链-35302
卫星全名:
星链-35302(STARLINK-35302)
卫星状态:
在轨 (已飞行166 天)
发射日期:
2025-09-29 UTC
国别 :
美国 (US)
星等 :
--
轨道信息
数据来源 国际轨道数据
星历时间: 2026-03-13T17:51:53+0800
23小时前
查看轨道信息
半长轴: 6853.347km
偏心率: 0.0001233
轨道倾角: 53.159°
近地点辐角 65.177°
升交点赤经 71.023°
平近点角 294.935°
近地点: 474.364km
远地点: 476.056km
周期: 94.105分钟
每日圈数: 15.302018
详细信息
固有亮度:
5
最大亮度:
2.5
卫星平台:
Starlink V1.0
覆盖范围:
全球
运营商:
太空探索技术公司
运营商所在国:
美国
制造商(研发单位):
太空探索技术公司
制造商所在国:
美国
使用方式:
暂无
卫星简介
Starlink 计划是 SpaceX 推出的全球卫星互联网项目,通过发射低轨道卫星,为全球尤其是偏远地区提供高速、低延迟的互联网服务。自 2019 年起,Starlink 已部署数千颗卫星,旨在缩小全球数字鸿沟,推动互联网普及。该项目还为军事、航空等行业提供通信支持,带来广泛经济效益。
2D轨道图
3D轨道图
轨道高度分析图
轨道倾角分析图
轨道综合分析图
查看轨道综合分析图